Weather History for Branson, MO

Change the Weather History Date:

Wednesday, January 16, 2013

  Actual Average (KHRO) Record (KHRO)
Temperature  
Mean Temperature 29 °F 36 °F  
Max Temperature 41 °F 46 °F 74 °F (1943)
Min Temperature 17 °F 26 °F -1 °F (1977)
Degree Days  
Heating Degree Days 36 29  
Month to date heating degree days 464  
Since 1 July heating degree days 2063  
Cooling Degree Days 0 0  
Month to date cooling degree days 0  
Year to date cooling degree days 0  
Moisture  
Dew Point 17 °F    
Average Humidity 66    
Maximum Humidity 93    
Minimum Humidity 36    
Precipitation  
Precipitation 0.00 in 0.09 in 1.75 in (1932)
Month to date precipitation 1.35  
Year to date precipitation 1.35  
Snow  
Snow 0.00 in 0.10 in 4.00 in (1978)
Month to date snowfall 1.6  
Since 1 July snowfall 3.4  
Snow Depth -    
Sea Level Pressure  
Sea Level Pressure 30.14 in    
Wind  
Wind Speed 1 mph (WSW)    
Max Wind Speed 9 mph    
Max Gust Speed -    
Visibility 9 miles    
Events      
T = Trace of Precipitation, MM = Missing Value Source: NWS Daily Summary

Daily Weather History Graph

Daily Weather History Graph

Search for Another Location

Airport:

Trip Planner

Search our weather history database for the weather conditions in past years. The results will help you decide how hot, cold, wet, or windy it might be!

Date:

Astronomy

Jan. 16, 2013 Rise Set
Actual Time 7:23 AM CST 5:22 PM CST
Civil Twilight 6:55 AM CST 5:50 PM CST
Nautical Twilight 6:23 AM CST 6:21 PM CST
Astronomical Twilight 5:52 AM CST 6:52 PM CST
Moon 10:10 AM CST (1/16) 11:03 PM CST (1/16)
Length of Visible Light 10h 54m
Length of Day
9h 58m
Waxing Crescent, 28% of the Moon is Illuminated
Jan 16
Waxing Crescent
Jan 18
First Quarter
Jan 26
Full
Feb 3
Last Quarter
Feb 10
New

Hourly Weather History & Observations

Time (CST) Temp. Windchill Dew Point Humidity Pressure Visibility Wind Dir Wind Speed Gust Speed Precip Events Conditions
12:15 AM 23.0 °F - 19.4 °F 86% 30.15 in 7.0 mi Calm Calm - N/A   Clear
12:35 AM 23.0 °F - 19.4 °F 86% 30.15 in 7.0 mi Calm Calm - N/A   Clear
12:55 AM 21.2 °F - 19.4 °F 93% 30.15 in 7.0 mi Calm Calm - N/A   Clear
1:15 AM 21.2 °F - 19.4 °F 93% 30.15 in 6.0 mi Calm Calm - N/A   Clear
1:35 AM 21.2 °F - 19.4 °F 93% 30.14 in 7.0 mi Calm Calm - N/A   Clear
1:55 AM 21.2 °F - 19.4 °F 93% 30.15 in 7.0 mi Calm Calm - N/A   Clear
2:15 AM 21.2 °F - 19.4 °F 93% 30.15 in 7.0 mi Calm Calm - N/A   Clear
2:35 AM 19.4 °F - 17.6 °F 93% 30.14 in 5.0 mi Calm Calm - N/A   Clear
2:55 AM 19.4 °F - 17.6 °F 93% 30.15 in 6.0 mi Calm Calm - N/A   Clear
3:15 AM 19.4 °F - 17.6 °F 93% 30.15 in 7.0 mi Calm Calm - N/A   Clear
4:15 AM 19.4 °F - 17.6 °F 93% 30.15 in 9.0 mi Calm Calm - N/A   Clear
4:35 AM 19.4 °F - 15.8 °F 86% 30.15 in 8.0 mi Calm Calm - N/A   Clear
4:55 AM 17.6 °F - 15.8 °F 93% 30.15 in 7.0 mi Calm Calm - N/A   Clear
5:35 AM 19.4 °F - 17.6 °F 93% 30.14 in 6.0 mi Calm Calm - N/A   Clear
6:45 AM 19.4 °F - 15.8 °F 86% 30.13 in 10.0 mi Calm Calm - N/A   Partly Cloudy
7:45 AM 17.6 °F - 15.8 °F 93% 30.15 in 10.0 mi Calm Calm - N/A   Partly Cloudy
8:46 AM 23.0 °F - 17.6 °F 80% 30.17 in 10.0 mi Calm Calm - N/A   Partly Cloudy
9:55 AM 28.4 °F 22.2 °F 15.8 °F 59% 30.18 in 10.0 mi WSW 5.8 mph - N/A   Partly Cloudy
10:59 AM 32.0 °F 26.4 °F 14.0 °F 48% 30.15 in 10.0 mi WSW 5.8 mph - N/A   Clear
11:50 AM 35.6 °F - 15.8 °F 44% 30.13 in 10.0 mi Calm Calm - N/A   Partly Cloudy
12:45 PM 39.2 °F - 15.8 °F 39% 30.10 in 10.0 mi Calm Calm - N/A   Partly Cloudy
2:47 PM 41.0 °F 36.4 °F 17.6 °F 39% 30.08 in 10.0 mi WNW 6.9 mph - N/A   Partly Cloudy
3:45 PM 41.0 °F 35.8 °F 15.8 °F 36% 30.09 in 10.0 mi NW 8.1 mph - N/A   Partly Cloudy
4:52 PM 39.2 °F 35.9 °F 14.0 °F 36% 30.10 in 10.0 mi WNW 4.6 mph - N/A   Clear
5:45 PM 37.4 °F - 15.8 °F 41% 30.11 in 10.0 mi Calm Calm - N/A   Clear
6:45 PM 33.8 °F - 14.0 °F 44% 30.13 in 10.0 mi Calm Calm - N/A   Clear
7:45 PM 33.8 °F 30.8 °F 15.8 °F 48% 30.13 in 10.0 mi West 3.5 mph - N/A   Clear
7:55 PM 33.8 °F 29.6 °F 15.8 °F 48% 30.13 in 10.0 mi WSW 4.6 mph - N/A   Clear
8:15 PM 32.0 °F 28.7 °F 15.8 °F 51% 30.14 in 10.0 mi WSW 3.5 mph - N/A   Clear
8:35 PM 32.0 °F 28.7 °F 15.8 °F 51% 30.14 in 10.0 mi SW 3.5 mph - N/A   Scattered Clouds
8:45 PM 32.0 °F 28.7 °F 15.8 °F 51% 30.15 in 10.0 mi SW 3.5 mph - N/A   Scattered Clouds
8:55 PM 32.0 °F 28.7 °F 15.8 °F 51% 30.15 in 10.0 mi WSW 3.5 mph - N/A   Partly Cloudy
9:15 PM 32.0 °F 28.7 °F 15.8 °F 51% 30.14 in 10.0 mi SW 3.5 mph - N/A   Clear
9:55 PM 32.0 °F 27.5 °F 15.8 °F 51% 30.15 in 10.0 mi SW 4.6 mph - N/A   Clear
10:15 PM 32.0 °F 27.5 °F 15.8 °F 51% 30.15 in 10.0 mi WSW 4.6 mph - N/A   Partly Cloudy
10:35 PM 32.0 °F 28.7 °F 17.6 °F 55% 30.15 in 10.0 mi WSW 3.5 mph - N/A   Clear
10:55 PM 32.0 °F 27.5 °F 15.8 °F 51% 30.15 in 10.0 mi WSW 4.6 mph - N/A   Clear
11:15 PM 32.0 °F 25.6 °F 15.8 °F 51% 30.15 in 10.0 mi WSW 6.9 mph - N/A   Clear
11:35 PM 32.0 °F 26.4 °F 15.8 °F 51% 30.16 in 10.0 mi WSW 5.8 mph - N/A   Clear
11:55 PM 32.0 °F 24.2 °F 15.8 °F 51% 30.16 in 10.0 mi WSW 9.2 mph - N/A   Clear